Theta_e
322 319 315 310 311 309 307 302 297 293 295 289 287 291 294 298 298 300 300 302 300 303 304 310 308 308 305 302 304 307 311 305 304 299 294 305 329 334 334 333 333 332 331 331 331 332 334 340 343 343 343 346 346 346 343 341 340 339 337 341 341 341 341 342 343 345 343 341 342 345 345 344 343 342 341 341 340 340 340 340 340 340 340 340 341 343 343 344 344 344 345 346 346 345 345 344 344
316 316 311 313 312 307 303 299 291 286 286 284 288 289 294 295 301 299 298 298 300 306 310 314 316 317 317 316 316 311 309 316 312 314 324 332 334 333 334 334 333 332 331 329 330 329 331 334 343 344 346 346 346 346 344 341 340 339 340 341 341 342 342 341 341 342 340 340 341 342 343 342 341 340 341 341 341 341 341 341 341 341 340 341 340 342 343 343 343 344 345 345 345 344 343 343 343
314 313 311 311 310 304 301 298 295 284 284 285 284 291 293 297 298 298 298 301 305 310 312 313 312 311 310 311 306 306 302 324 325 327 328 334 330 330 334 334 333 332 332 329 330 330 330 335 341 343 346 346 346 345 344 341 340 341 340 340 340 340 341 340 341 344 344 344 343 340 337 337 341 341 341 341 340 340 341 341 341 341 342 341 341 342 343 343 343 344 344 345 344 343 343 343 343
314 315 310 306 306 300 295 292 288 285 290 282 284 289 293 296 298 297 301 305 309 308 304 308 310 312 310 309 310 314 314 319 325 328 326 330 332 334 334 333 333 333 331 330 329 329 331 337 342 346 345 345 345 345 343 342 341 341 341 341 340 341 342 343 346 346 346 342 339 337 337 343 342 340 341 341 340 341 342 341 342 342 342 342 342 342 342 342 342 343 344 344 344 343 343 343 343
313 316 311 306 303 302 295 291 288 286 287 285 286 287 291 295 299 299 302 303 304 300 303 305 309 314 314 314 312 305 310 321 328 329 330 332 336 335 334 333 333 332 331 330 330 329 331 340 341 345 345 345 345 343 343 342 341 340 340 340 342 340 340 345 346 346 345 342 341 341 342 343 342 341 341 341 342 341 341 341 341 340 341 341 341 341 342 342 342 342 343 344 344 343 343 343 342
309 311 311 308 303 305 296 293 291 289 288 288 289 292 294 298 301 301 302 302 301 302 303 305 309 309 312 315 315 310 320 317 326 327 330 331 335 335 334 333 332 331 330 330 329 330 331 339 341 344 345 345 345 342 342 342 340 339 340 340 340 339 339 340 345 345 345 344 344 344 343 340 340 341 341 342 342 343 342 341 341 341 341 341 341 342 340 340 341 342 342 343 343 342 342 342 342
312 304 303 303 301 300 293 289 286 286 292 291 291 294 298 299 302 301 300 302 304 307 308 311 314 312 310 312 317 320 320 322 323 326 331 333 335 334 333 332 331 330 330 330 330 330 331 340 343 344 345 345 344 343 342 341 341 340 340 339 340 339 338 339 342 342 342 342 342 343 342 342 342 342 341 341 341 341 341 341 341 341 341 340 341 341 341 341 341 342 342 343 342 342 341 341 341
313 306 302 293 291 295 291 288 289 287 292 292 292 300 299 302 300 301 300 300 301 303 310 312 310 307 307 314 310 318 321 322 325 330 334 335 333 332 332 332 330 330 331 330 330 330 340 339 342 343 344 344 345 344 342 341 341 340 340 339 339 339 338 337 340 341 340 339 338 340 339 339 339 339 340 339 340 339 341 340 340 340 340 340 340 340 339 340 340 341 342 341 341 340 340 340 341
308 306 302 296 293 291 286 290 289 290 291 291 297 301 306 302 301 302 300 301 301 304 308 309 306 303 305 311 310 315 319 326 332 333 334 334 332 332 332 331 330 330 331 331 329 331 332 338 340 342 342 345 345 344 345 343 340 340 340 339 340 339 338 338 338 338 339 339 338 338 338 337 337 338 338 339 338 339 340 340 340 340 340 340 339 340 339 340 340 341 341 341 341 340 340 340 340
304 304 295 294 289 292 286 287 289 290 292 292 298 301 302 301 301 302 301 301 303 304 305 303 306 301 308 310 311 316 318 327 332 332 333 333 332 332 331 330 331 332 332 331 331 332 333 341 338 340 341 343 344 343 344 345 341 340 340 340 340 339 338 338 337 337 338 342 339 337 337 337 337 338 339 340 341 341 340 340 340 340 340 340 340 339 339 339 339 340 341 341 341 340 339 339 339
297 300 298 294 287 287 289 286 287 289 294 293 300 302 302 302 301 299 301 300 301 302 306 311 310 311 312 311 309 314 320 329 330 328 332 332 331 330 330 330 332 334 332 331 331 332 333 334 340 337 339 340 343 344 344 345 343 341 340 340 340 339 338 337 336 336 338 341 341 342 341 342 342 342 341 341 340 340 340 339 340 340 339 339 339 339 339 339 340 340 340 340 340 340 339 339 338
298 295 295 286 286 288 286 289 288 290 291 294 300 302 300 301 299 299 299 302 300 304 307 309 308 312 309 307 310 318 323 327 330 331 331 332 331 331 330 330 331 332 332 331 332 332 331 332 334 339 336 337 338 341 341 343 344 343 342 341 339 339 338 337 337 336 336 340 340 340 340 341 341 341 341 340 340 340 340 339 339 339 338 338 338 337 338 338 338 340 340 339 338 338 337 337 337
297 296 290 289 286 289 288 291 290 292 288 293 299 302 299 299 298 300 300 301 300 304 303 306 315 312 307 304 308 317 322 325 329 330 331 331 331 331 331 331 331 331 331 333 333 332 330 330 332 334 332 333 334 335 338 340 342 343 342 341 340 339 338 337 337 336 336 339 340 340 340 340 340 339 339 339 339 338 338 338 338 338 337 337 337 337 337 337 338 338 338 339 338 337 336 335 335
299 297 294 292 287 288 289 289 287 292 290 294 294 298 300 299 298 298 301 300 299 302 303 306 316 315 310 312 315 315 322 324 328 329 331 331 331 331 330 330 330 331 334 336 335 334 332 332 333 332 330 331 330 331 333 336 339 341 340 340 340 340 340 341 341 340 339 338 338 338 339 339 338 338 338 338 338 337 337 337 336 336 336 336 336 336 336 337 337 337 337 337 337 336 335 335 334
303 299 292 288 287 288 289 292 289 289 292 292 297 298 298 300 298 298 302 301 299 301 311 315 316 309 305 312 311 318 322 324 327 329 330 331 331 330 329 329 331 333 335 336 336 336 335 335 336 334 328 329 328 328 330 335 335 336 337 337 338 339 339 337 337 336 334 334 334 334 334 333 332 333 333 333 334 333 333 332 335 336 335 335 336 336 335 336 336 336 335 335 335 334 334 333 333
303 297 293 293 288 288 290 292 289 289 292 293 297 297 299 297 297 301 301 302 301 306 310 312 309 306 307 313 312 322 325 324 327 329 330 329 328 327 327 328 331 332 333 334 334 336 336 336 336 333 328 329 327 329 330 330 332 332 335 335 335 335 334 333 333 331 328 327 328 328 327 326 326 326 327 327 329 331 330 327 331 335 335 335 335 335 335 335 335 335 334 334 333 332 332 330 330
301 298 294 286 289 288 291 292 290 289 290 292 294 297 299 296 298 299 300 300 306 307 312 314 309 315 315 314 313 325 325 325 326 329 329 328 328 325 325 327 329 329 331 331 332 334 336 336 336 334 331 329 331 331 331 331 331 330 331 330 330 329 330 330 329 324 322 321 321 322 322 321 319 321 321 321 323 323 322 325 329 334 335 334 334 334 334 334 334 334 334 333 332 329 323 324 324
302 295 289 289 286 289 292 294 292 292 293 294 294 296 298 294 297 301 305 306 305 308 311 311 314 314 314 316 318 326 325 325 327 327 327 327 327 324 324 325 326 325 328 328 330 333 334 335 335 334 333 331 333 333 333 333 330 330 329 328 326 326 326 324 323 322 325 318 321 320 319 321 319 318 320 326 320 322 323 324 326 331 334 333 333 333 333 332 332 333 334 333 331 326 320 315 316
295 291 291 291 289 292 296 295 293 295 294 295 296 294 299 298 298 299 301 301 305 306 310 310 312 314 316 318 323 323 324 324 325 327 327 326 326 324 323 324 325 325 326 327 328 331 333 334 335 334 333 332 333 333 333 332 331 329 327 325 326 325 325 322 321 321 318 319 317 317 318 317 317 317 319 320 318 321 322 323 325 329 331 330 331 332 332 331 331 332 332 329 327 321 314 312 313
296 294 291 289 293 293 294 294 294 294 296 295 295 295 295 297 298 298 300 300 301 303 307 308 310 310 313 318 322 322 323 323 325 325 326 327 327 325 324 323 322 323 325 327 328 331 332 332 334 334 333 333 333 333 333 332 331 329 325 322 324 323 322 321 319 318 319 319 319 318 318 316 316 316 323 324 323 317 318 320 322 323 324 325 324 322 324 328 330 328 325 321 317 313 312 312 314
298 295 292 294 293 295 295 293 293 292 295 295 295 295 295 296 298 299 298 300 299 300 306 310 310 312 315 319 321 321 322 321 322 324 325 326 328 328 327 325 323 324 325 327 327 329 331 332 332 333 333 333 333 333 332 331 331 330 326 321 322 322 322 321 320 319 318 319 319 320 318 316 316 318 318 316 317 317 317 316 316 314 312 313 314 311 311 310 312 311 313 312 311 312 314 313 313
298 294 297 297 294 293 294 294 294 293 293 296 294 296 296 296 297 297 301 299 298 302 304 309 313 317 317 318 320 321 321 320 321 322 323 325 326 327 329 328 328 329 328 326 326 327 330 331 332 333 333 332 333 333 332 331 331 330 328 325 321 321 322 321 320 320 319 319 319 319 319 318 317 318 315 314 314 316 317 316 313 312 310 311 313 309 310 312 310 309 308 309 311 311 312 312 310
292 295 295 294 293 293 294 294 293 293 296 296 295 298 296 297 296 295 302 301 299 300 305 311 317 319 320 322 321 321 321 320 320 321 323 323 325 327 328 329 329 329 330 328 328 328 329 330 331 332 331 332 332 333 333 332 331 331 330 327 323 322 321 321 321 320 321 319 319 318 319 317 316 316 315 315 316 314 315 313 314 311 311 311 313 312 308 309 310 310 311 310 310 311 312 309 308
296 295 298 296 293 293 293 294 291 292 295 296 296 297 297 295 296 295 298 298 296 295 308 314 319 320 321 320 321 321 321 321 321 322 324 324 325 326 327 328 330 331 330 330 329 329 328 329 330 330 330 330 331 333 332 331 331 331 330 328 326 323 322 322 322 322 321 321 320 320 319 320 319 316 316 316 316 313 315 315 312 313 312 311 312 310 309 309 309 309 310 309 310 309 309 308 307
297 299 299 295 294 293 293 291 291 292 293 293 295 297 297 295 295 294 297 300 296 300 312 318 319 319 319 320 320 321 321 321 321 321 322 323 324 324 324 327 327 328 328 330 330 330 330 330 330 330 330 329 330 332 331 331 331 331 330 329 328 324 323 323 323 322 322 322 321 320 319 319 318 318 317 317 315 316 314 314 313 314 311 311 310 310 309 308 308 306 306 306 305 306 306 309 307
301 299 296 295 295 295 293 292 291 291 293 294 296 295 292 294 295 296 299 298 296 303 316 318 318 317 317 318 320 320 321 321 321 320 321 322 322 322 322 324 325 325 328 329 330 331 332 333 331 329 330 330 330 331 331 330 330 329 329 329 328 324 324 324 321 322 322 322 321 320 320 321 320 319 318 316 316 316 314 315 314 313 314 311 309 313 311 308 308 307 306 307 307 306 307 309 308
299 297 296 295 296 293 293 293 292 291 293 293 297 293 294 292 294 294 296 296 300 308 315 316 317 316 317 318 319 320 320 320 321 322 320 318 320 322 322 322 323 325 326 327 328 330 330 332 332 331 331 329 331 331 331 329 328 328 327 327 326 324 324 323 322 323 321 322 322 320 320 320 320 319 318 317 316 316 315 314 315 313 312 312 311 314 309 309 308 308 310 308 307 307 309 306 307
299 296 296 296 294 292 292 293 292 293 295 291 294 294 293 293 293 293 293 299 302 306 312 314 316 316 317 318 318 319 320 321 321 320 320 319 320 322 322 322 323 324 325 326 327 328 329 331 332 332 332 331 330 331 330 329 327 327 326 326 326 325 323 323 323 322 322 323 322 321 321 320 319 319 318 317 317 316 314 314 314 313 315 312 312 313 311 310 311 309 308 308 308 308 307 306 305
297 298 293 294 295 293 292 294 294 293 295 291 291 294 292 292 293 295 292 302 301 305 312 314 314 315 316 317 318 318 318 319 318 319 320 322 323 323 323 324 324 324 325 327 327 326 327 329 331 332 333 331 331 331 331 330 328 327 326 326 326 325 324 323 323 322 323 323 322 321 321 320 319 319 318 318 317 316 315 314 313 313 314 314 313 311 309 309 308 309 308 307 308 308 308 310 305
298 299 297 293 292 291 292 293 292 293 294 291 293 286 286 292 297 295 296 304 304 304 308 312 313 314 315 315 317 317 317 315 317 320 321 322 322 323 323 324 324 325 324 324 325 325 327 328 331 332 332 332 331 332 331 330 329 327 327 327 325 325 324 323 323 323 323 323 323 322 321 320 319 319 318 317 317 316 315 314 314 313 313 312 312 310 309 308 309 308 307 308 308 307 307 307 306
292 294 295 292 290 286 290 292 293 293 294 292 293 287 287 292 295 293 294 302 304 303 306 310 311 312 313 314 316 316 317 319 319 320 321 322 322 323 323 324 324 324 323 323 324 326 326 327 328 331 330 332 330 331 330 331 330 328 327 327 326 326 325 324 324 323 322 323 323 322 321 320 320 320 319 319 317 316 315 314 312 314 312 309 310 309 310 309 308 310 307 309 305 306 305 306 304
291 290 289 290 288 288 292 292 291 293 293 292 292 286 290 293 292 289 289 299 302 301 303 307 309 311 312 313 315 316 317 318 319 319 320 321 322 322 322 323 324 323 324 324 325 325 325 326 326 329 329 331 331 331 331 331 330 329 328 325 327 326 325 324 324 323 323 323 323 323 322 321 320 320 319 318 318 317 316 315 315 313 310 309 309 308 308 310 309 307 306 307 308 308 305 309 304
290 288 287 289 286 289 290 293 291 292 292 293 291 287 287 292 289 287 289 298 301 299 300 304 306 308 310 312 314 315 315 315 316 318 319 320 321 322 323 323 324 324 324 324 324 324 325 325 325 326 328 330 331 331 331 330 330 329 328 327 327 326 326 325 324 323 323 323 322 322 322 321 320 320 319 317 318 317 316 316 315 314 310 311 310 308 309 311 311 310 307 305 307 307 305 306 307
288 287 286 289 288 288 287 290 292 292 292 290 290 289 289 289 289 288 292 294 297 298 298 301 304 306 308 310 312 313 313 314 315 317 318 320 321 322 323 321 324 324 324 324 324 325 325 325 325 325 327 329 331 331 330 330 330 329 328 328 325 326 326 326 325 324 323 323 322 322 322 321 320 320 319 318 317 317 317 316 316 314 312 311 312 312 313 312 312 312 310 305 306 306 305 305 308
286 285 286 286 286 287 289 290 291 292 292 290 289 287 291 294 294 290 291 292 294 297 298 297 300 302 303 305 308 310 312 312 314 316 318 319 320 321 323 323 323 323 324 324 324 325 325 325 324 323 325 327 329 330 329 329 328 327 327 326 326 326 326 326 325 324 324 323 323 322 322 321 320 320 319 317 318 316 315 315 316 315 315 314 315 314 313 312 312 311 311 310 306 307 309 308 308
289 287 287 286 287 287 287 291 291 294 290 289 288 289 291 293 294 292 291 290 292 292 290 289 292 296 297 299 302 306 309 310 314 315 316 318 320 321 322 323 323 324 324 324 323 324 324 324 324 325 324 326 327 328 328 327 326 326 326 324 325 326 326 324 325 325 325 324 323 322 322 321 321 320 320 318 317 316 314 313 314 315 317 316 315 314 313 312 313 311 310 310 309 308 307 308 307
290 290 289 288 287 287 288 289 291 291 290 288 288 289 291 293 293 291 289 290 289 289 291 292 292 292 295 296 298 301 304 307 310 309 311 315 318 320 321 322 322 323 323 323 323 323 324 325 324 324 325 325 326 326 326 327 327 326 326 326 326 327 326 325 325 325 325 325 324 324 323 322 321 320 320 320 320 318 319 317 313 312 315 316 316 315 315 314 313 313 311 309 310 309 309 307 308
291 289 288 286 287 285 288 291 291 290 290 287 287 287 290 291 292 290 288 289 291 291 291 292 292 291 292 295 297 298 301 303 302 304 308 310 315 317 319 320 319 320 322 323 322 323 324 325 324 325 325 325 326 327 327 327 328 329 328 328 327 326 326 326 326 326 326 326 326 326 326 325 324 323 322 323 323 322 320 317 316 315 315 315 316 316 314 310 311 311 311 309 308 310 309 307 307
289 287 287 285 285 287 289 289 290 290 290 287 284 286 290 292 293 289 288 291 292 293 293 295 294 292 291 292 295 297 297 299 301 303 305 309 311 315 318 319 321 322 323 322 323 323 324 324 325 325 325 325 326 326 327 326 327 327 328 326 327 321 320 325 327 327 325 325 324 325 326 326 326 325 324 323 324 323 322 320 318 315 313 315 314 314 313 312 312 311 311 312 310 308 309 308 308
289 287 285 284 286 287 285 287 289 289 288 287 284 284 288 291 289 289 289 291 292 293 293 293 293 293 293 294 294 295 296 298 298 300 303 306 309 312 315 318 320 321 321 322 322 323 324 323 324 325 325 325 326 326 324 327 327 327 325 321 323 325 321 318 321 322 326 326 325 323 323 323 323 325 325 324 324 324 322 321 319 316 314 314 316 316 314 313 312 311 310 311 312 310 306 308 308
291 289 286 285 286 286 287 286 287 288 287 285 284 284 284 288 291 290 289 289 290 292 290 290 290 293 295 294 293 294 296 297 298 299 300 302 305 309 313 317 319 319 321 322 322 323 324 324 324 325 325 325 326 325 324 325 322 319 318 313 313 314 313 317 322 324 326 325 326 326 325 322 322 322 324 325 324 324 323 322 320 319 317 316 316 316 316 315 314 313 312 311 311 311 311 307 304
289 288 288 287 286 286 287 287 288 287 285 285 287 281 279 282 284 286 289 287 289 291 291 292 292 292 292 292 294 295 295 296 298 299 299 301 303 307 310 314 316 319 320 322 323 324 324 324 324 325 325 325 325 325 325 324 323 324 320 321 320 320 322 319 321 323 325 324 326 327 326 324 322 322 323 324 324 322 323 322 321 320 318 317 315 316 317 315 313 311 311 312 312 311 312 309 308
286 286 289 289 288 287 287 286 287 281 281 285 284 283 274 281 285 286 285 284 288 290 289 292 293 293 292 293 295 295 296 296 295 296 297 297 299 301 306 311 315 317 320 321 322 323 323 324 324 324 325 325 325 325 324 323 323 323 323 324 324 323 323 323 321 317 324 325 324 326 326 325 325 324 323 323 323 322 323 322 321 321 320 318 315 315 315 314 314 314 314 312 312 312 310 309 310
284 287 289 290 288 288 287 287 287 283 284 285 283 281 278 280 287 284 281 283 284 287 288 289 291 292 293 294 295 295 296 296 296 296 296 297 299 300 303 308 313 317 319 319 321 321 322 323 323 323 324 323 324 324 324 324 324 323 323 323 323 323 323 323 319 314 312 316 323 325 324 324 324 324 324 323 323 322 321 322 322 321 320 319 316 315 315 315 315 314 313 313 311 310 312 311 311
284 289 291 289 290 289 289 287 284 284 285 281 280 284 281 276 281 284 283 284 285 286 288 289 291 292 292 293 295 295 296 296 296 296 295 296 297 297 300 304 310 314 316 318 319 320 321 322 321 321 323 322 322 322 322 322 323 324 324 323 322 321 322 320 309 310 314 312 317 318 322 323 323 323 323 322 322 322 320 321 322 321 320 319 316 316 316 315 315 314 312 311 311 310 310 312 311
286 289 292 291 289 288 288 284 285 283 281 280 280 281 277 278 279 282 282 283 282 285 289 290 291 292 292 292 293 294 295 294 294 295 296 296 296 297 298 300 304 310 315 316 317 318 319 319 319 319 321 321 321 321 321 322 322 322 323 322 322 321 317 311 310 312 311 308 314 314 318 320 321 322 322 322 321 321 321 321 321 321 321 320 315 318 317 315 315 315 314 313 312 311 310 310 310
289 290 291 289 286 285 283 283 281 280 276 280 280 280 280 277 281 286 285 284 286 288 287 288 289 290 290 290 291 293 293 294 294 294 294 295 295 295 295 298 301 304 308 310 313 314 315 317 318 319 320 321 319 321 320 321 321 321 322 322 322 321 317 315 313 312 310 307 312 311 312 316 319 321 321 321 322 322 322 320 322 322 321 317 316 317 316 316 315 314 314 312 311 311 311 310 309
291 285 284 288 287 284 284 280 282 277 276 278 278 279 279 276 278 281 285 285 283 287 288 290 291 291 290 290 290 291 291 292 293 293 294 294 293 294 294 296 298 303 305 309 311 311 313 315 316 318 318 318 318 319 319 321 321 321 321 322 321 321 318 316 316 316 313 313 311 312 309 310 314 316 318 321 321 322 321 322 320 322 320 320 319 319 317 316 316 315 314 313 312 311 311 309 309
287 284 286 284 279 281 277 279 276 277 275 281 278 279 279 280 282 283 284 285 286 285 288 291 290 290 290 290 291 291 291 290 291 293 294 294 294 295 295 297 296 300 305 308 310 311 312 313 315 317 317 317 318 318 319 319 319 320 320 320 320 319 317 316 316 316 313 314 312 310 308 312 309 311 315 318 320 320 320 321 320 320 320 319 318 318 318 317 315 314 313 312 311 309 309 309 310
285 285 282 282 277 276 276 273 270 272 277 279 280 280 279 279 281 288 289 293 294 291 288 289 289 290 292 292 292 292 292 292 292 293 293 294 295 295 296 296 297 298 301 305 307 308 310 311 312 315 317 316 315 316 318 318 319 319 319 319 319 317 316 315 316 316 314 314 312 313 312 313 312 314 315 316 320 319 319 320 320 320 320 319 317 317 316 316 315 314 312 312 311 311 311 311 310
285 284 287 282 278 274 273 272 275 276 278 278 280 278 277 278 283 282 289 291 289 288 288 287 288 289 290 290 290 291 293 293 292 292 293 294 295 294 295 295 295 296 297 299 302 305 306 308 310 311 314 313 313 314 315 317 318 316 315 316 316 315 316 315 316 316 315 313 311 312 312 311 312 311 312 315 313 317 318 318 318 319 317 316 314 314 313 313 313 312 311 311 310 309 309 308 308
284 282 284 281 283 280 277 275 273 271 273 275 276 278 279 281 283 286 285 286 288 288 288 286 288 289 289 290 292 293 294 294 292 291 292 292 293 293 294 294 293 294 296 296 298 301 303 306 307 310 313 312 311 311 313 315 315 314 313 313 314 313 312 314 314 311 312 312 311 312 311 310 310 309 306 306 308 314 316 316 315 316 316 314 313 313 312 311 310 311 310 309 309 307 309 308 307
284 283 283 283 284 282 276 275 278 275 273 275 274 278 281 282 287 290 285 284 287 287 287 286 288 288 287 291 293 293 293 292 292 292 292 292 290 292 295 295 295 295 295 297 298 298 301 302 303 304 306 304 307 308 311 311 312 312 312 313 312 312 313 314 314 311 310 309 310 310 310 309 306 304 304 303 305 308 312 313 313 313 313 314 314 314 313 309 308 308 307 307 307 306 305 305 304
285 281 284 284 286 283 280 274 270 273 273 274 274 278 278 279 281 284 284 286 290 287 287 287 285 285 287 291 293 294 294 292 290 290 291 292 292 293 293 293 294 295 296 295 296 296 297 298 299 301 301 304 304 305 307 308 309 310 310 310 311 313 313 313 312 311 308 307 304 305 302 303 304 303 303 303 302 304 304 303 309 307 307 309 310 310 311 310 309 307 305 306 308 307 308 305 304
285 281 285 287 279 279 277 274 271 268 269 268 273 276 277 279 283 283 285 283 286 288 287 284 287 287 288 290 292 292 291 291 291 291 291 292 293 293 293 293 293 293 294 294 295 295 295 295 296 299 301 302 303 305 305 306 309 311 311 310 310 310 309 309 307 307 306 308 307 305 306 306 302 301 302 302 303 302 302 300 302 301 302 305 307 306 306 306 307 306 305 305 302 303 302 301 301
286 286 284 283 282 279 275 278 273 275 272 270 271 274 279 281 281 282 288 285 286 287 285 286 287 288 288 289 291 291 291 291 291 292 292 291 291 292 293 293 294 295 295 295 295 295 296 296 296 297 298 298 299 302 303 306 305 307 306 305 304 306 306 307 306 306 307 307 306 305 303 302 304 300 300 301 301 299 297 295 292 294 294 294 296 295 296 299 299 300 299 299 298 299 300 299 299
283 284 282 284 281 282 280 279 276 276 268 266 268 272 277 280 284 286 290 291 293 290 287 287 288 288 288 288 289 289 289 290 290 290 290 290 291 291 293 293 294 294 294 294 296 297 297 296 297 298 300 299 301 301 302 304 303 304 304 305 305 305 304 305 304 305 307 305 304 303 303 302 298 296 296 296 295 295 293 291 290 291 291 292 294 291 291 292 292 293 292 294 295 296 298 296 295
286 284 282 284 280 278 277 278 278 273 275 272 267 277 278 282 285 290 290 291 291 291 287 287 287 288 288 288 288 288 289 290 290 290 289 289 291 292 292 291 293 295 295 296 296 297 295 296 297 297 299 300 300 300 302 302 302 304 304 304 304 303 304 304 304 302 302 301 300 300 299 299 299 293 294 294 293 291 291 292 292 291 288 289 291 292 287 290 290 290 289 291 292 293 294 292 292
Wind_Speed
6 5 2 1 4 3 2 6 1 3 2 1 1 0 2 0 1 2 3 1 2 2 0 2 4 4 1 4 7 4 0 6 4 8 4 1 2 6 7 10 8 7 6 3 2 2 2 3 5 9 10 10 10 10 11 8 11 12 10 12 12 12 13 13 14 14 15 14 15 16 16 16 16 14 15 15 16 16 16 16 16 16 15 16 17 18 18 17 18 18 18 18 18 18 17 17 18
4 4 3 1 1 1 1 2 3 3 5 4 2 1 2 2 1 2 5 3 2 2 2 9 9 11 12 12 9 4 3 2 2 1 2 2 6 5 8 10 9 9 5 3 3 3 3 2 2 10 11 10 10 10 10 9 9 12 11 12 12 12 12 12 12 14 15 14 14 15 15 15 14 15 15 15 15 15 16 15 16 16 15 15 17 17 17 17 18 18 18 18 18 18 18 17 17
3 6 2 4 3 4 2 4 2 1 2 0 2 4 2 2 4 3 4 3 6 8 6 7 7 4 2 2 2 1 2 3 5 2 3 7 11 6 7 8 8 7 6 3 3 4 3 1 5 9 12 11 11 10 9 8 9 12 11 11 12 12 12 11 13 14 14 14 14 13 12 13 15 15 15 15 15 15 16 16 15 16 15 15 16 17 17 17 17 17 18 18 17 17 17 16 17
1 4 1 3 2 4 1 3 4 3 1 3 1 2 1 5 5 3 1 5 8 5 1 1 4 2 2 4 2 2 3 3 1 5 6 8 3 8 8 9 7 6 4 3 3 4 3 2 6 11 11 12 11 10 10 9 8 9 11 12 12 12 11 11 12 13 14 14 14 12 13 15 15 14 14 14 14 15 15 15 15 15 15 15 15 16 16 17 17 17 17 17 17 16 16 17 17
2 2 3 5 3 2 1 0 3 2 0 4 2 3 2 4 5 4 4 2 3 1 1 3 5 4 0 5 1 0 3 2 3 1 3 2 7 8 8 8 7 6 5 3 3 3 2 5 4 7 12 13 12 11 10 10 9 10 10 12 13 11 11 14 13 13 12 15 14 13 14 15 15 14 13 14 14 14 14 14 15 14 14 14 15 15 16 15 16 16 16 17 17 16 16 16 16
5 2 4 2 0 2 4 0 0 2 4 5 1 3 4 6 8 6 5 3 3 1 2 3 5 4 2 1 1 2 3 5 4 1 3 5 10 10 9 7 7 6 4 3 3 3 3 5 5 9 11 13 13 12 11 10 10 10 9 11 12 12 10 11 15 15 14 15 15 14 13 14 14 13 13 14 13 14 14 14 14 14 15 14 15 15 15 15 15 16 16 16 16 16 16 16 16
1 4 5 3 2 4 3 1 2 3 5 6 3 3 8 5 6 7 3 2 1 0 1 3 6 6 4 1 1 1 2 2 4 3 3 7 9 10 9 8 7 6 4 4 3 3 4 6 6 7 11 12 13 12 11 11 10 9 9 12 12 12 10 9 12 13 13 14 14 13 13 13 13 13 13 13 13 14 14 14 14 15 14 14 14 15 14 15 15 15 16 16 16 16 16 16 16
1 2 1 2 1 2 1 0 4 5 2 6 2 6 6 8 5 5 6 3 2 1 1 4 3 5 1 3 3 2 3 1 4 7 9 10 9 9 9 8 8 6 5 4 3 3 5 6 5 5 7 11 12 12 12 11 11 9 9 11 12 11 10 10 11 13 12 11 12 12 12 13 12 12 12 12 12 13 13 13 14 14 14 14 14 14 14 14 15 15 16 15 15 15 15 16 16
5 6 0 4 1 3 2 2 3 2 5 2 4 3 6 6 6 8 4 1 1 1 4 4 1 6 3 2 1 2 2 1 8 11 11 10 10 10 7 8 9 7 5 4 3 3 3 6 6 5 6 10 12 12 12 11 11 11 10 10 11 12 10 9 9 9 12 12 11 11 11 11 12 12 11 11 12 12 12 13 13 13 14 13 13 13 13 14 14 15 15 15 15 14 14 15 15
1 2 1 2 4 1 3 4 0 2 2 2 4 6 6 4 4 1 8 2 4 5 2 1 1 3 3 3 0 0 2 4 11 10 10 10 10 9 9 8 8 10 7 5 4 3 3 6 6 5 6 9 10 11 11 9 10 12 10 11 11 11 10 10 9 9 12 13 10 10 10 10 11 11 11 12 12 12 12 12 13 13 13 13 13 13 13 13 14 14 15 15 14 14 13 13 14
1 5 2 3 2 1 3 4 4 4 1 3 1 0 2 1 2 3 0 5 2 4 1 2 4 6 4 2 2 3 1 7 14 12 11 10 9 9 8 7 8 9 9 6 4 3 3 4 6 6 5 6 8 8 9 8 8 11 12 10 11 11 10 9 9 9 11 11 11 11 11 12 12 12 11 11 11 12 11 12 12 12 12 13 12 12 12 13 13 13 14 14 14 14 13 13 12
1 1 2 3 2 6 4 2 3 6 4 1 3 1 1 4 2 4 3 9 3 2 4 5 4 5 4 0 1 1 4 7 13 11 10 10 9 9 9 7 8 7 8 7 5 4 4 4 3 4 5 6 7 7 8 8 6 10 12 11 10 10 10 10 9 8 10 11 10 10 11 12 12 12 11 11 10 11 11 12 12 11 11 11 11 12 12 12 12 11 12 13 14 14 14 13 12
2 2 5 4 2 1 2 1 2 2 2 3 4 2 3 4 4 5 4 4 4 6 2 5 8 3 3 4 3 1 7 8 9 12 10 9 8 7 7 8 7 7 6 7 6 5 4 4 3 3 3 7 6 6 9 9 7 9 10 11 10 9 9 9 8 8 9 10 10 10 11 11 12 11 11 10 9 11 11 10 10 10 10 10 11 11 11 11 10 10 11 11 12 13 13 13 11
2 4 5 3 1 2 3 1 1 1 3 2 2 1 5 3 3 3 5 6 5 7 2 7 5 5 2 1 1 4 8 6 9 11 9 8 7 7 8 7 7 7 7 8 7 6 4 3 3 3 3 3 3 5 7 9 8 8 9 9 9 8 8 9 8 9 9 9 8 8 8 8 9 9 8 8 8 8 8 8 9 9 9 9 9 10 10 9 9 9 9 9 10 11 12 12 11
1 2 4 3 1 1 2 3 4 4 5 3 3 6 3 3 2 4 6 9 6 1 0 2 4 3 5 8 4 9 10 8 10 10 9 8 8 7 8 8 8 8 8 7 7 7 6 5 5 4 3 3 3 3 3 5 8 8 8 8 9 9 8 8 8 9 9 9 9 9 8 9 8 8 8 8 8 8 7 7 7 7 9 9 9 9 9 8 7 7 8 8 8 9 9 10 11
2 4 3 2 1 3 3 1 1 2 5 4 1 5 6 1 1 6 4 1 1 2 2 4 1 1 2 11 6 13 11 9 9 10 10 9 6 5 6 7 8 9 7 7 8 7 6 5 5 4 3 4 3 2 3 3 6 9 9 9 9 9 8 8 9 9 9 9 9 8 8 7 6 6 8 6 8 7 7 5 7 6 7 8 8 7 7 7 6 6 6 7 8 8 8 8 8
1 3 0 3 3 3 3 2 5 2 3 3 1 6 8 4 1 0 1 1 8 4 0 0 2 1 5 4 3 12 10 10 10 12 11 8 7 6 5 6 6 7 6 7 8 8 7 6 6 5 4 4 3 2 2 3 4 7 7 9 9 9 9 8 9 9 9 8 7 7 7 5 4 4 4 4 6 4 7 8 7 7 7 7 6 7 7 6 5 5 6 6 7 8 6 7 8
0 1 4 1 3 3 4 4 7 1 3 4 4 7 8 3 2 1 3 5 3 1 1 3 1 2 2 2 1 11 11 13 12 15 12 9 8 7 7 7 8 8 7 7 6 8 8 8 7 7 5 6 5 3 3 3 3 4 4 4 4 6 6 7 6 5 6 4 7 5 4 4 4 3 3 4 3 4 5 7 7 7 7 6 6 6 5 4 4 5 5 6 7 7 6 4 4
1 1 2 7 4 4 5 2 4 1 2 3 5 6 9 8 9 3 4 2 2 2 1 2 1 3 4 3 9 13 12 12 13 14 14 13 11 11 9 8 8 8 8 7 7 7 7 7 8 7 6 6 6 5 3 3 4 2 3 4 4 5 5 4 4 4 4 4 4 3 3 3 3 3 3 3 3 4 4 6 7 7 6 6 6 5 4 3 2 3 5 6 6 6 4 4 3
1 3 3 4 7 4 4 3 2 5 1 1 4 5 5 5 5 3 4 7 3 8 6 1 3 1 4 5 9 12 12 12 12 13 14 14 12 12 11 10 9 9 9 8 8 7 7 8 9 7 8 8 7 5 4 3 3 3 2 3 4 4 4 3 3 3 4 4 4 4 3 3 3 2 3 5 5 3 3 5 6 6 5 5 5 4 4 2 2 4 5 4 3 3 3 3 4
1 1 2 2 2 1 2 4 4 3 4 1 2 1 3 4 4 5 5 7 6 6 6 10 11 7 8 11 12 11 13 12 11 11 13 13 11 10 11 11 10 9 8 7 6 9 11 9 7 7 8 8 7 6 6 5 4 3 3 3 4 4 4 3 3 3 3 3 3 4 3 3 3 2 3 2 3 3 2 2 3 2 2 2 3 2 1 1 1 1 2 2 2 3 3 3 4
1 1 6 4 1 1 5 2 3 2 5 4 3 7 7 2 1 5 12 10 9 13 11 6 7 12 13 13 13 11 13 13 12 12 13 14 15 13 9 7 4 5 6 7 9 8 9 9 9 8 8 8 8 7 7 5 5 4 5 4 4 3 4 4 3 3 4 3 3 3 4 4 4 3 3 2 3 3 3 2 2 1 1 1 1 1 1 0 0 1 1 2 2 2 2 2 2
0 1 4 4 4 3 3 1 1 1 2 5 6 5 3 7 3 4 10 13 2 1 5 8 11 16 17 16 14 13 14 15 14 15 14 14 14 12 11 10 9 10 8 9 8 7 8 8 9 8 8 8 9 7 7 6 6 5 5 5 5 5 4 4 4 4 4 3 3 3 5 4 4 4 3 3 3 3 4 3 2 1 2 2 1 1 1 0 1 1 1 1 2 3 3 2 3
5 5 3 6 5 7 7 5 4 0 7 4 2 1 6 5 6 1 6 5 2 3 3 7 5 5 8 13 15 18 17 17 17 15 15 16 16 15 12 11 9 8 8 9 9 8 8 10 9 8 8 8 7 8 8 8 6 7 6 5 5 5 5 5 5 5 4 5 4 4 4 5 5 4 4 3 3 3 4 4 2 1 2 2 1 0 1 0 0 1 1 2 2 2 2 3 2
3 1 2 7 6 5 8 5 4 1 3 2 5 3 3 0 1 3 9 8 2 2 5 8 7 8 9 12 15 14 14 14 13 11 7 7 8 8 7 8 8 8 10 9 8 8 9 9 9 10 8 9 8 8 9 7 7 7 6 6 6 5 5 6 5 5 5 4 4 4 4 4 4 4 5 5 4 4 3 3 3 3 2 3 1 2 1 2 2 1 1 2 1 2 2 3 2
1 2 1 6 8 10 8 6 4 3 1 3 4 2 2 1 3 2 8 5 1 2 6 9 8 9 11 12 14 14 13 15 13 11 12 8 7 9 8 9 9 10 11 10 9 9 9 9 10 11 10 10 8 8 7 7 9 9 7 8 7 5 6 6 4 5 5 5 5 5 5 5 6 6 5 4 5 5 4 4 3 4 3 2 2 3 3 2 3 1 1 1 2 2 2 3 1
0 3 3 4 10 8 4 1 3 2 1 1 6 2 0 2 3 8 1 4 6 5 7 7 11 12 12 10 11 11 13 15 15 12 7 6 7 11 10 9 10 11 9 10 9 9 8 9 10 10 9 9 8 8 8 8 7 8 7 7 6 6 6 5 5 5 5 5 5 5 5 6 6 5 5 5 5 5 4 4 4 4 3 3 3 5 2 3 2 3 3 3 2 2 3 2 2
1 7 6 4 7 5 6 4 6 1 0 0 4 1 1 1 1 8 2 3 7 9 6 8 9 11 11 11 11 10 11 12 9 8 14 12 12 11 12 11 11 9 10 10 9 8 8 10 10 10 10 9 9 9 8 8 8 8 7 6 7 6 5 6 6 5 5 5 5 6 6 6 6 5 5 5 5 5 5 5 4 4 5 4 5 5 3 3 4 2 1 1 1 1 3 3 2
2 8 6 9 10 8 3 2 3 2 1 2 1 1 1 0 6 5 3 2 5 8 9 9 10 8 9 9 9 8 11 9 7 9 13 13 11 10 13 11 11 11 8 9 9 8 10 10 10 10 10 9 10 10 9 8 7 7 7 7 7 6 6 6 6 7 6 5 5 6 6 6 6 6 6 6 6 5 5 4 4 5 5 5 5 4 4 2 2 2 2 1 1 1 2 4 3
1 4 3 8 7 9 6 0 2 1 1 1 1 4 6 8 14 1 2 5 5 5 6 8 8 8 7 7 8 9 6 6 9 13 12 11 10 11 12 10 11 10 9 7 7 10 9 7 8 8 10 11 11 9 9 8 7 7 7 7 7 7 6 6 7 6 6 5 6 6 6 6 6 6 6 6 5 5 5 5 5 5 5 4 4 3 4 3 4 2 3 1 2 2 3 4 3
3 1 4 1 3 5 3 1 0 3 0 0 2 4 7 9 8 4 1 4 8 7 6 8 7 7 7 8 8 9 10 11 15 15 13 11 10 9 11 9 10 10 7 8 12 12 9 9 8 8 10 11 11 10 10 9 7 7 7 7 7 7 7 7 7 6 6 6 6 6 7 7 7 6 6 6 6 5 5 5 5 6 3 3 4 4 5 4 3 4 2 2 2 2 2 4 3
1 2 5 1 4 5 6 1 3 6 0 2 4 3 9 9 6 3 3 5 5 8 8 8 8 8 8 8 9 9 11 10 9 9 10 9 9 9 10 12 11 10 11 11 10 9 10 10 10 10 10 12 12 12 10 9 9 8 8 7 7 7 7 7 7 7 7 6 6 6 7 7 7 6 6 5 6 5 6 6 6 4 3 3 3 3 3 4 4 3 2 2 3 5 2 4 1
2 4 1 8 2 6 7 2 4 3 1 1 3 5 3 7 3 3 1 6 7 6 6 7 9 9 8 9 9 9 8 7 9 11 10 10 10 10 10 11 11 13 12 10 11 10 10 10 10 11 12 13 12 11 10 9 8 8 8 8 8 7 8 7 7 6 6 6 6 7 7 7 7 6 6 5 6 5 5 5 6 5 3 4 5 3 4 4 4 4 3 2 3 4 2 4 5
6 1 3 4 7 4 5 3 2 2 2 4 1 3 7 3 2 4 0 5 5 7 8 8 8 8 8 7 8 9 9 9 12 13 14 12 11 12 11 11 11 11 10 11 11 12 13 11 10 11 10 11 11 11 11 9 8 8 7 7 7 8 8 7 7 6 7 7 6 7 6 7 6 6 6 5 6 5 5 5 5 4 4 4 4 4 5 2 2 3 4 3 3 3 3 4 6
8 4 4 3 1 5 5 3 2 7 1 4 2 5 12 12 8 4 1 4 5 10 7 5 6 7 6 6 8 9 10 11 15 13 13 13 13 12 11 10 10 10 9 11 11 11 10 9 9 10 10 10 10 10 9 9 7 6 6 6 7 8 7 7 7 7 7 7 7 7 6 6 6 5 5 5 6 5 5 5 4 4 4 4 4 4 4 2 1 2 4 4 1 3 3 3 5
10 5 5 3 8 7 4 6 2 8 6 6 6 9 12 15 14 4 1 3 7 7 4 5 6 6 5 7 8 8 10 14 15 11 9 9 10 11 11 10 10 10 10 9 11 10 10 10 9 9 10 10 9 8 8 8 7 8 8 5 7 8 7 7 7 8 7 7 7 7 7 7 5 6 5 5 5 5 4 5 5 4 4 4 5 4 4 5 7 6 6 5 3 2 2 4 3
5 4 4 7 3 5 3 4 2 1 1 7 7 8 10 12 10 3 1 0 3 5 8 10 8 7 8 8 9 12 11 17 10 6 6 8 11 11 9 8 9 9 10 10 11 11 12 12 11 13 11 9 9 9 9 10 10 8 8 10 10 7 7 6 7 7 7 7 7 7 7 7 6 6 6 5 6 6 5 4 4 3 4 4 5 6 6 6 5 3 2 2 4 3 3 3 2
11 6 4 6 2 4 3 1 2 4 4 3 2 4 11 13 12 6 1 2 7 9 10 10 11 9 7 8 11 12 15 7 5 5 7 8 10 10 9 9 8 11 11 11 13 13 13 12 13 13 9 9 10 11 10 10 10 10 9 9 7 7 7 8 8 7 7 6 7 8 8 7 7 7 7 7 6 6 6 5 5 6 5 5 5 4 4 2 2 3 2 1 2 4 3 2 2
3 5 3 1 5 2 7 3 1 2 2 8 1 5 11 14 13 4 5 6 6 8 10 13 12 8 8 9 11 12 7 12 9 9 6 8 10 10 10 10 11 13 13 14 13 12 13 13 12 11 10 11 11 11 10 11 10 8 9 7 9 5 4 6 6 6 6 7 7 7 8 8 8 7 7 7 7 7 7 6 6 6 6 6 5 4 4 4 4 5 5 4 3 2 3 1 2
5 4 4 5 2 2 5 2 0 1 2 2 1 5 9 10 6 7 8 8 7 8 9 10 7 11 12 15 14 10 11 13 14 12 12 10 9 10 9 11 13 12 12 10 11 13 12 12 11 11 11 11 11 12 11 10 10 8 7 5 6 8 6 5 5 4 6 7 8 7 7 6 6 8 8 7 7 7 7 7 6 5 6 5 6 6 6 6 5 4 5 6 5 4 2 4 5
6 5 3 3 2 3 5 3 2 1 1 2 1 3 6 8 10 6 5 7 5 6 4 6 6 8 10 5 4 8 13 14 15 12 10 9 9 11 14 14 11 12 13 13 13 13 11 13 12 12 11 12 11 10 11 8 6 5 4 2 3 2 1 3 5 8 8 8 8 8 8 6 7 6 6 8 8 8 7 7 6 7 7 6 6 6 6 7 7 7 7 6 6 6 6 4 2
8 4 7 6 4 5 2 2 0 1 3 3 2 3 5 5 6 8 5 1 5 7 6 10 10 8 6 9 13 11 10 11 14 14 13 11 12 10 8 10 12 13 14 14 12 13 12 11 11 11 10 10 10 10 11 9 9 10 8 7 7 7 8 7 11 12 9 9 10 4 5 7 7 6 6 6 7 6 7 7 6 6 6 5 6 6 7 5 5 5 6 7 7 7 7 5 4
7 7 8 7 6 3 1 1 2 2 3 3 1 9 6 5 5 5 4 2 9 5 3 10 9 8 8 11 13 13 14 13 10 10 8 7 11 8 9 11 14 14 15 10 10 12 12 11 12 13 12 10 10 10 10 10 9 9 12 13 12 11 11 10 8 4 6 5 3 6 5 6 7 8 7 7 7 7 7 6 7 7 7 6 6 5 5 6 6 7 6 5 7 7 4 6 6
7 2 8 7 4 5 6 5 7 5 1 3 2 1 4 5 9 3 3 2 6 7 7 10 11 10 10 12 13 13 13 12 11 13 13 12 11 13 15 15 13 16 13 10 12 10 12 13 11 12 10 10 10 9 10 11 11 10 11 12 11 11 11 12 6 4 3 4 6 6 5 5 6 7 7 7 7 7 7 7 7 6 7 7 7 7 7 7 6 5 6 6 5 4 6 6 6
3 2 7 4 7 8 5 6 6 2 1 8 1 0 1 5 8 4 0 3 6 8 9 9 11 12 12 12 13 13 14 14 13 13 13 14 14 13 13 12 14 12 10 12 12 12 12 11 10 9 11 10 8 10 10 10 11 12 12 11 10 9 9 7 4 4 5 4 5 5 6 5 5 6 6 6 7 7 7 7 7 7 7 6 7 6 6 7 8 6 5 5 6 6 6 7 5
5 4 7 6 5 4 3 4 4 1 1 9 4 2 3 8 5 5 2 1 5 7 10 10 11 11 9 10 11 12 9 7 7 12 12 11 11 11 11 9 6 10 9 8 8 8 8 8 10 10 11 9 9 10 11 11 12 10 10 10 12 10 6 4 4 4 4 4 5 5 5 5 5 5 6 6 6 7 7 7 7 7 8 7 7 9 8 6 6 8 9 9 8 7 5 5 7
3 6 4 3 5 2 3 4 3 2 6 8 3 2 1 7 6 9 6 6 7 8 7 7 8 8 6 8 9 9 9 9 9 11 11 10 7 8 6 10 10 5 6 6 7 8 7 8 10 12 12 9 9 11 11 12 10 10 11 11 12 12 7 6 5 5 4 4 5 5 5 5 5 6 5 5 6 6 7 7 7 7 6 6 5 4 6 8 8 6 6 5 5 7 6 7 7
8 2 3 3 1 3 2 1 2 4 8 2 1 2 3 9 4 5 7 4 4 6 7 10 10 9 6 5 6 7 8 9 8 8 10 9 6 7 5 9 8 8 6 8 8 6 8 8 9 11 10 10 9 10 10 11 10 11 11 11 11 10 8 8 9 9 7 7 6 6 5 4 5 4 4 5 5 6 6 6 6 6 5 6 7 7 5 5 6 6 4 5 5 6 5 5 4
4 5 6 7 2 2 4 1 6 9 5 0 0 2 1 13 5 5 6 9 6 7 11 12 9 10 8 7 7 6 6 6 8 9 9 6 8 9 9 9 6 7 11 11 11 10 9 9 10 12 13 10 10 10 11 11 10 11 11 11 10 8 8 8 8 8 6 7 6 6 5 6 4 4 5 6 6 7 6 6 6 6 5 5 5 5 6 6 5 4 5 5 5 4 6 6 5
7 8 7 8 5 7 10 3 1 4 5 3 0 0 6 2 5 12 12 15 15 11 8 9 10 12 12 10 8 7 6 6 7 7 7 7 8 8 8 8 9 8 8 9 9 9 9 9 10 12 13 10 9 9 11 10 11 10 9 10 9 7 8 8 8 8 7 7 7 7 7 7 7 8 7 8 7 6 5 6 6 6 5 5 5 4 4 4 4 5 4 4 5 5 4 5 5
7 3 8 6 3 4 6 3 9 8 7 1 3 1 7 4 5 3 12 9 7 6 6 5 7 9 10 9 8 9 9 7 5 6 7 7 6 5 5 5 6 6 6 7 7 8 7 8 9 11 10 9 9 10 9 11 10 8 7 7 7 6 7 8 8 8 8 8 6 7 6 5 6 6 7 7 4 6 6 5 4 5 5 4 4 3 2 2 2 3 3 3 3 2 2 2 3
5 4 4 5 10 5 4 5 3 2 1 2 2 6 3 4 3 7 5 8 9 6 9 5 9 7 5 7 8 9 8 7 4 5 5 5 4 4 4 4 4 4 5 5 6 7 8 9 9 10 12 9 9 9 9 9 8 7 7 8 8 8 7 7 6 6 6 6 6 7 7 6 6 5 4 4 5 6 6 5 5 5 5 4 4 5 4 3 1 1 1 1 2 2 1 1 2
5 5 11 7 2 6 5 3 0 1 3 9 2 6 6 7 7 9 2 3 9 6 7 5 9 6 4 7 9 7 7 6 5 4 5 5 4 4 5 4 4 4 4 6 7 7 8 8 7 8 7 5 7 8 8 7 7 7 7 7 7 7 8 9 9 8 8 6 6 6 6 7 5 4 5 4 5 4 4 4 5 4 4 4 3 4 5 3 2 3 3 2 1 0 2 3 3
7 7 9 2 2 5 5 6 1 1 6 7 2 7 4 1 9 3 4 7 12 7 6 7 6 5 6 9 9 9 8 6 5 5 5 5 4 4 4 3 3 3 4 4 4 4 4 5 6 7 5 8 6 6 7 7 7 8 7 8 8 9 9 8 7 7 6 6 5 4 4 4 6 6 5 5 4 4 3 4 4 4 3 3 4 3 2 4 3 3 3 4 3 3 4 3 3
5 5 4 8 5 6 2 3 4 3 5 4 2 2 5 8 8 3 2 4 8 10 7 4 6 5 7 8 10 8 5 5 6 6 5 5 4 4 3 4 3 3 3 4 3 3 3 3 4 6 8 7 6 6 5 5 7 7 8 9 9 8 6 6 5 5 6 6 6 6 6 5 4 4 5 5 4 4 4 3 2 2 2 1 1 2 2 1 0 2 1 1 0 0 0 1 1
1 2 3 1 3 1 4 7 3 4 6 0 9 1 11 7 6 7 6 6 9 8 6 6 7 7 6 7 8 7 6 5 5 5 4 4 3 3 3 3 3 3 3 2 2 2 3 3 3 3 2 3 4 5 6 7 6 6 6 5 4 5 5 6 6 7 7 7 6 6 6 5 6 4 4 4 4 4 4 4 3 3 3 2 3 2 2 3 2 1 1 1 1 2 0 1 1
2 3 4 1 0 2 4 1 4 5 4 3 2 7 7 7 8 9 10 11 11 9 9 7 7 7 7 7 7 7 6 5 5 4 4 4 3 2 0 1 1 0 0 1 2 4 4 3 4 4 5 4 5 5 5 5 6 5 7 7 7 6 6 6 6 5 7 6 6 5 5 4 5 4 5 5 5 5 5 5 5 4 3 3 3 3 3 3 3 2 2 2 2 1 0 1 1
9 8 7 8 7 4 7 10 3 1 2 5 2 14 5 5 4 11 11 10 12 12 3 5 6 7 7 6 5 5 7 6 5 4 4 3 1 0 1 2 2 2 1 2 1 2 2 3 3 4 4 5 5 5 5 5 4 6 6 6 6 5 6 6 7 6 6 6 5 5 6 6 6 3 3 6 6 6 5 5 5 4 4 3 3 4 3 4 3 3 2 2 2 2 2 2 2
Wind_Direction
324 338 327 100 69 100 54 0 133 315 56 262 351 71 186 140 214 81 137 329 62 298 320 59 57 68 169 193 162 152 158 133 195 134 213 233 145 130 127 123 124 122 131 153 162 118 127 135 105 130 115 113 116 114 113 118 116 106 111 97 98 99 97 96 98 96 90 86 89 86 85 85 87 89 89 88 86 85 84 83 83 84 86 90 87 82 81 78 78 82 84 83 80 79 79 80 80
302 324 39 86 37 59 284 108 97 352 37 43 249 81 238 301 83 180 180 172 201 114 117 90 83 78 66 88 120 133 34 16 180 155 82 125 114 113 139 133 136 136 140 143 129 125 124 110 103 124 121 117 119 113 108 116 118 114 112 107 106 101 103 100 95 95 96 95 88 87 90 92 93 85 82 79 80 80 81 83 83 85 90 91 90 85 82 79 79 81 83 83 83 82 81 81 82
326 356 31 34 36 71 86 36 309 67 73 354 276 209 331 119 159 213 234 170 136 146 122 107 104 83 53 66 33 44 226 38 96 156 113 139 132 163 144 131 132 133 135 138 131 126 118 134 138 127 122 117 119 114 116 119 117 117 121 115 109 107 97 101 106 102 98 98 95 88 89 94 89 86 88 89 87 86 82 81 81 82 87 93 90 85 82 79 78 80 81 81 82 82 82 82 82
80 30 114 68 257 33 54 24 90 122 309 207 302 272 184 166 194 209 208 159 151 149 168 43 52 278 119 59 126 102 84 139 142 144 138 167 166 139 141 132 127 121 117 126 134 125 130 140 108 121 120 120 125 119 121 121 118 121 116 110 103 99 97 94 89 100 104 99 98 102 100 91 94 90 88 88 87 85 85 84 85 86 89 92 91 87 84 80 78 79 81 81 80 80 81 82 81
55 335 72 91 102 5 94 114 144 94 308 197 175 275 259 203 169 177 162 181 198 240 303 141 76 335 122 126 89 143 210 89 134 192 119 101 117 137 135 128 126 124 130 137 131 131 141 131 100 121 133 132 127 120 126 127 117 111 112 111 110 108 109 103 100 105 104 105 102 99 95 94 93 95 94 90 88 87 86 85 86 87 89 96 96 90 86 83 80 78 80 81 80 78 79 80 81
47 35 357 80 51 175 53 53 354 221 214 150 132 234 218 203 156 174 172 229 267 270 228 79 149 184 21 341 177 103 155 140 181 118 139 148 143 138 136 131 127 128 137 135 134 131 148 124 122 126 137 138 128 127 129 125 121 118 119 118 110 110 104 96 102 104 105 102 100 97 100 96 94 98 96 92 90 88 88 88 87 88 91 96 97 89 86 85 82 80 81 81 79 80 80 81 80
325 39 357 27 23 52 171 135 232 204 277 163 207 198 185 197 186 137 161 105 220 23 289 136 121 92 72 302 26 153 221 182 125 174 142 145 136 137 136 133 133 135 142 142 143 143 150 131 127 128 135 140 129 127 129 127 123 120 116 118 115 115 116 114 106 104 100 99 100 100 97 99 102 98 95 96 96 94 91 89 89 87 89 93 95 92 89 89 84 80 79 79 81 83 83 84 84
51 134 318 107 245 45 59 182 243 153 266 167 230 168 190 185 164 155 172 110 204 116 2 119 98 98 234 34 168 252 352 202 140 121 124 135 140 138 134 138 136 142 144 144 151 157 145 133 133 128 134 136 134 136 132 131 129 123 116 115 112 115 122 120 109 106 111 110 107 109 107 110 107 103 105 101 94 96 96 93 89 88 89 92 94 93 91 89 87 83 82 82 84 85 86 86 87
0 81 295 79 101 39 57 262 267 231 280 294 277 248 181 178 172 143 144 207 60 109 145 171 190 92 231 58 134 271 327 90 111 122 133 137 147 144 138 144 144 147 148 147 155 154 133 137 137 135 123 126 137 139 131 128 133 133 127 119 119 120 119 110 103 110 112 112 114 112 114 109 108 109 107 106 104 100 98 96 95 93 93 94 94 92 93 91 86 82 81 84 86 88 86 86 87
22 65 268 140 131 213 7 303 59 244 224 243 192 183 175 178 188 205 138 104 162 129 178 78 87 119 148 131 38 330 155 150 118 119 138 149 148 140 144 151 149 146 147 152 156 143 145 141 138 123 115 135 142 141 135 128 140 135 131 126 124 121 122 120 115 110 106 85 99 114 120 124 118 108 102 98 99 95 92 95 96 98 97 96 95 93 96 98 90 82 80 81 84 88 88 88 88
339 14 138 84 39 129 203 264 269 316 281 321 216 259 196 135 140 141 47 129 109 148 168 109 38 122 104 248 205 259 262 149 131 150 155 153 149 146 147 149 148 151 150 155 150 143 146 138 137 128 117 116 130 135 137 134 136 137 131 129 127 125 123 122 120 118 110 92 96 98 101 105 109 108 104 102 100 99 97 95 92 88 91 93 93 95 100 97 86 79 78 80 84 84 83 83 84
323 14 9 101 173 160 227 181 271 278 298 318 198 197 167 154 100 134 159 129 172 126 172 159 187 143 75 67 270 4 137 166 149 152 155 152 152 152 146 143 147 154 151 149 143 144 139 139 130 134 124 111 115 130 133 130 121 116 123 130 130 129 127 127 124 121 115 98 103 106 110 107 105 104 106 100 96 100 99 93 89 90 93 93 95 99 101 96 85 70 69 74 79 81 80 78 79
117 99 81 101 222 159 182 111 260 302 348 264 180 210 132 129 203 195 164 116 140 134 278 214 135 76 129 183 256 293 162 194 151 151 152 157 155 148 140 142 148 144 147 145 141 145 143 136 132 124 127 120 113 115 128 134 126 122 128 130 132 131 131 130 129 128 117 105 104 105 105 98 98 101 101 98 92 94 92 91 94 98 101 102 101 100 101 98 77 66 60 65 76 80 79 76 75
121 182 130 202 48 148 139 195 320 154 263 240 249 127 151 144 248 180 143 132 182 162 249 162 136 132 69 65 260 185 198 183 159 149 150 151 144 144 143 139 140 146 150 152 153 150 143 140 127 122 120 116 113 109 127 135 132 127 127 126 126 124 118 115 109 100 99 99 96 96 93 93 93 90 89 82 81 82 89 94 99 102 107 106 105 106 101 91 69 62 60 59 68 74 74 71 69
303 141 83 113 92 94 244 132 217 167 241 184 194 137 161 253 118 140 182 148 228 230 16 57 171 127 215 159 245 206 184 176 154 148 144 138 142 141 141 140 140 148 153 157 155 157 154 147 139 137 129 129 131 111 113 135 136 133 130 127 123 120 120 118 115 109 110 107 100 100 93 91 94 90 88 88 84 83 78 79 93 107 115 111 110 104 101 84 68 60 60 60 64 67 65 63 62
152 81 80 137 215 167 261 146 41 102 256 177 107 143 148 308 170 144 251 167 165 354 141 185 159 205 175 170 214 180 164 151 151 143 137 136 131 125 134 138 143 155 163 159 165 168 162 153 146 143 140 145 142 121 124 132 140 138 135 129 128 128 129 128 122 118 117 114 112 107 102 92 87 88 88 81 86 85 84 88 89 98 114 115 112 108 105 89 65 57 57 59 57 53 47 49 48
44 78 51 42 213 164 242 155 143 206 238 233 279 148 169 219 256 133 306 144 123 173 39 314 180 49 179 203 242 144 142 139 138 141 139 142 141 134 133 138 143 156 170 172 176 172 171 165 155 150 156 145 140 124 118 135 141 136 135 134 134 136 137 135 127 124 123 122 118 116 107 99 99 98 88 90 84 89 90 84 85 82 87 100 109 109 101 81 68 57 52 57 51 41 33 35 43
46 159 116 191 201 149 212 175 187 216 146 211 200 194 147 185 197 197 70 32 43 14 83 315 342 353 243 274 191 136 133 141 151 149 158 154 158 150 157 162 160 175 174 182 190 178 174 182 172 158 154 152 148 147 144 142 142 138 140 138 137 140 138 132 131 134 132 129 127 122 118 120 115 110 110 103 100 96 93 97 93 93 92 89 100 109 103 84 86 60 41 43 44 40 31 33 25
102 133 107 219 172 237 160 192 192 139 271 248 200 187 171 201 148 204 127 219 153 125 292 357 322 353 40 77 139 128 141 145 156 160 164 165 169 167 168 168 175 172 182 182 191 186 180 180 186 167 166 154 154 155 152 153 153 147 150 148 146 149 152 144 142 132 138 140 134 127 125 125 130 125 129 130 115 110 112 110 103 99 100 96 99 105 100 82 89 59 37 38 40 35 29 11 15
237 125 228 254 210 249 218 194 216 203 148 227 201 224 177 201 157 138 176 176 198 187 185 316 208 192 132 141 150 141 148 155 162 163 170 172 175 173 172 174 182 187 182 182 181 187 181 182 191 178 172 166 162 160 152 161 170 165 175 162 155 162 162 159 146 144 147 150 144 135 128 124 115 119 121 119 112 100 96 95 101 99 98 92 85 64 39 42 80 48 46 31 29 29 29 14 5
266 105 176 240 213 285 260 178 222 221 179 181 229 39 164 200 179 155 147 125 235 246 227 176 192 169 159 163 162 155 157 163 170 169 171 176 182 184 183 183 183 182 179 167 176 186 188 187 186 183 177 171 168 161 162 176 167 170 185 179 172 172 176 169 159 155 160 161 155 144 140 127 121 122 125 115 118 120 106 98 101 100 84 88 41 68 23 358 35 20 11 24 22 18 17 0 5
350 199 304 286 313 243 261 216 185 233 201 150 122 154 210 111 53 146 155 174 207 209 209 219 166 163 157 166 172 166 167 170 175 176 179 179 182 185 182 179 170 170 161 179 188 186 188 185 185 186 178 175 175 174 177 168 165 185 190 189 181 186 180 181 173 171 173 175 164 149 133 126 129 133 137 137 137 145 143 157 143 115 96 138 32 42 60 57 328 53 33 10 349 18 18 345 346
101 342 273 327 258 262 279 356 281 191 121 156 163 218 88 159 198 196 177 196 229 309 165 178 171 170 170 162 161 174 175 179 180 184 181 182 186 186 185 179 175 177 179 194 185 191 185 186 186 182 185 181 186 174 172 170 187 191 190 186 182 192 187 180 189 184 188 178 173 155 147 150 149 155 161 169 179 171 175 178 185 162 188 205 207 170 184 112 52 33 36 359 331 3 341 355 2
106 221 329 315 14 288 292 323 342 130 145 196 196 36 164 161 189 179 201 227 283 312 181 151 150 137 144 155 175 176 182 184 190 189 187 186 184 185 182 181 184 180 185 186 187 189 186 189 184 182 186 185 184 178 181 187 192 187 191 182 200 192 182 195 194 193 184 186 182 178 171 167 166 168 187 187 201 183 194 197 178 189 226 231 199 184 234 310 30 27 15 335 343 326 325 323 12
100 329 339 306 325 286 294 307 318 2 218 185 108 139 233 242 231 89 233 226 316 27 114 120 135 146 164 170 177 185 187 192 193 191 190 191 189 180 183 184 181 182 191 189 186 188 192 190 180 187 186 189 186 179 188 190 187 185 188 194 199 192 197 200 193 185 190 189 188 184 177 175 181 181 184 200 177 201 197 189 190 213 221 241 230 264 222 256 271 288 284 293 326 314 333 317 349
71 172 276 305 309 314 302 312 298 20 338 161 112 190 312 190 286 238 237 222 206 133 121 130 140 155 173 185 183 183 190 196 196 191 193 184 178 179 191 186 184 190 195 187 184 194 189 186 188 191 187 188 186 182 190 187 189 192 192 197 199 192 206 201 185 190 195 182 193 191 192 186 187 186 196 190 183 203 198 195 193 215 219 221 197 248 234 218 240 247 285 305 337 326 319 280 348
228 321 335 312 297 324 341 339 297 320 117 247 168 174 171 324 94 267 249 172 125 124 143 152 153 174 183 184 192 194 190 197 197 194 183 186 188 191 192 189 191 197 188 193 191 193 188 184 193 194 190 187 181 189 189 191 183 192 193 194 190 202 201 197 201 197 191 197 194 188 192 194 190 193 191 189 201 198 196 191 209 200 223 220 202 229 238 225 238 220 224 239 244 280 280 336 345
52 2 335 329 337 306 258 316 291 311 38 142 136 135 217 297 79 230 250 160 151 142 157 169 179 178 185 192 192 197 202 204 198 186 199 193 197 194 193 192 194 194 193 198 192 185 185 192 192 195 193 187 186 193 191 190 190 194 192 187 196 200 189 200 206 200 201 203 194 191 191 194 190 194 191 191 195 196 197 202 209 195 221 210 201 219 224 232 230 246 275 290 309 351 300 317 324
46 55 15 318 342 335 293 203 297 315 262 140 157 104 316 308 233 240 246 138 142 151 169 180 188 191 192 193 195 199 208 200 194 205 212 208 202 196 199 195 189 194 202 194 188 182 190 191 194 196 194 190 193 195 194 197 193 192 190 193 197 190 194 200 204 208 206 202 197 194 196 197 193 190 195 194 194 198 200 202 210 216 221 212 201 206 210 228 248 264 296 8 347 354 333 303 325
26 51 103 339 351 324 293 123 315 280 252 112 101 215 263 241 234 122 103 135 110 134 181 191 196 194 197 196 199 210 211 199 208 213 212 211 206 205 207 198 195 195 190 194 187 196 191 191 192 192 195 194 197 198 195 197 197 195 193 195 193 188 194 198 208 209 208 203 198 200 199 201 199 198 188 197 190 193 198 203 210 224 224 213 200 180 195 194 215 227 255 341 323 327 298 300 330
99 209 65 204 348 266 293 150 289 175 272 272 91 213 271 250 261 266 185 159 158 170 194 202 202 201 198 201 205 211 215 210 210 211 211 210 209 210 212 204 200 199 187 191 198 198 190 191 188 197 194 198 196 200 197 200 196 194 194 195 195 193 195 200 205 206 207 209 198 204 202 203 204 201 196 190 193 189 194 205 212 225 208 196 187 193 186 192 197 220 200 242 305 319 314 294 308
182 118 226 301 196 285 291 96 177 180 271 355 110 264 245 257 269 273 253 174 177 187 194 203 205 204 204 203 210 215 220 220 233 232 224 219 212 213 209 211 204 201 200 200 202 195 198 195 191 196 191 198 199 200 199 198 197 196 195 196 196 196 197 203 204 203 205 205 201 204 204 203 202 202 197 192 192 196 196 203 215 212 191 176 202 176 167 197 204 217 221 188 241 272 297 287 312
255 192 81 203 179 266 326 239 203 195 119 345 162 214 302 297 271 303 261 183 188 199 206 205 211 212 207 209 212 218 227 236 238 233 225 218 219 215 213 213 207 206 206 202 201 201 205 200 194 197 195 199 198 200 201 200 195 197 196 197 199 195 201 206 205 203 203 202 203 206 203 201 202 198 195 191 191 194 204 209 213 200 176 184 191 185 195 207 188 212 232 206 194 244 246 270 291
220 65 201 182 209 236 243 304 230 199 154 205 266 211 238 225 268 311 7 185 182 212 218 215 216 217 214 213 218 222 224 228 230 227 223 215 219 216 214 212 210 207 209 207 205 202 206 203 200 201 200 199 197 197 198 199 199 195 197 199 198 200 206 206 204 196 203 205 202 209 202 201 200 197 194 190 193 194 196 203 215 194 174 179 195 186 219 186 198 189 238 224 196 207 247 252 273
176 162 191 228 228 223 238 206 241 138 275 189 207 228 258 266 271 267 260 161 195 220 224 228 224 228 228 223 223 229 230 230 235 228 220 217 220 220 218 214 211 209 207 208 208 208 206 207 203 204 201 198 200 196 195 197 196 200 195 194 199 208 210 209 201 203 204 203 207 207 203 203 202 196 191 188 191 188 190 201 204 200 183 186 191 202 210 183 195 210 220 246 175 214 228 239 245
177 160 169 183 195 225 214 243 270 181 176 221 190 203 241 254 263 257 155 166 189 239 288 271 235 229 231 226 230 231 233 239 240 232 223 220 222 221 219 215 213 211 209 207 210 208 208 208 206 206 205 197 194 191 184 192 191 195 199 203 213 210 207 205 207 210 203 209 207 203 206 205 204 203 194 187 190 184 186 192 202 195 193 185 190 196 210 197 205 211 226 220 248 285 234 250 250
169 174 177 221 228 277 285 291 283 287 108 227 210 223 238 252 253 272 253 98 191 214 236 241 240 224 220 226 227 229 231 235 242 234 226 221 221 221 221 217 217 214 214 209 208 209 207 206 201 210 203 194 187 188 191 192 195 198 205 206 209 200 203 203 211 211 209 212 206 207 206 205 201 202 203 185 195 190 194 189 186 196 187 192 198 209 207 214 219 206 193 169 218 254 286 227 240
182 180 164 225 171 251 246 281 350 315 173 279 249 238 261 258 266 251 279 151 232 213 224 239 240 226 224 225 235 232 232 259 279 244 217 215 219 215 212 215 210 212 216 209 209 209 207 207 207 209 198 196 196 195 194 196 198 199 197 207 202 198 197 203 214 211 214 210 208 209 210 205 203 204 201 200 198 195 191 187 189 192 183 198 207 212 210 196 169 187 172 230 194 217 245 219 198
181 182 179 220 262 249 286 224 244 312 155 261 118 204 252 257 255 241 182 207 234 222 210 223 222 229 231 231 238 241 249 250 241 238 232 224 218 214 208 211 213 214 214 210 210 208 209 210 210 205 200 196 202 199 194 200 200 200 196 194 191 199 215 210 212 206 200 207 210 213 210 204 203 208 202 203 205 202 202 192 198 195 191 184 193 209 204 206 197 200 192 210 244 222 240 272 177
188 182 174 213 230 166 279 306 35 341 156 290 212 209 272 274 268 251 227 205 231 229 220 232 202 215 224 226 222 228 234 244 243 231 226 221 215 212 209 212 213 211 215 212 210 211 212 212 207 203 202 201 202 201 199 203 199 195 200 183 191 185 190 194 201 210 203 205 217 210 218 212 205 204 199 203 208 207 202 202 196 189 200 193 195 203 201 214 199 202 194 213 218 253 209 251 201
214 177 169 196 172 221 186 262 341 292 306 98 58 348 302 264 269 281 256 232 276 271 258 257 247 233 236 267 291 226 230 232 240 240 231 224 218 215 208 211 206 211 212 210 207 208 208 208 205 203 202 203 204 197 197 192 175 170 157 85 99 109 41 157 197 222 212 208 213 211 212 197 208 213 205 203 202 207 203 202 196 197 196 200 202 209 207 209 204 203 196 199 197 219 249 243 272
223 217 181 203 191 209 265 328 345 334 304 265 177 323 280 277 270 243 266 17 235 249 240 251 238 235 240 244 242 244 241 235 233 236 228 219 221 224 217 211 209 215 215 213 207 209 206 204 201 205 206 204 202 196 191 184 183 179 171 177 184 198 207 193 209 214 206 209 215 194 197 198 204 210 208 207 206 205 205 202 203 199 202 197 198 211 216 212 211 200 203 201 212 216 231 239 239
203 247 180 204 199 191 161 161 97 289 233 292 25 199 268 322 287 242 262 297 258 280 256 258 253 236 224 232 236 235 234 240 239 248 243 224 228 226 225 216 214 215 220 207 208 211 206 203 201 202 204 203 200 197 189 186 188 190 191 196 202 204 212 224 225 211 208 207 181 198 200 189 200 205 210 208 207 205 207 203 204 204 202 204 203 204 212 211 208 210 206 201 213 217 202 243 238
223 233 169 190 176 189 213 180 184 232 264 296 46 143 206 277 274 278 301 306 280 288 268 258 256 243 231 230 234 235 236 235 231 232 232 227 224 212 218 215 212 217 212 199 210 207 204 205 201 201 201 201 199 195 193 191 193 195 200 208 209 210 210 224 201 197 169 169 193 206 197 197 195 203 206 206 207 205 204 206 204 205 203 206 191 201 210 212 209 213 203 210 218 201 201 218 241
217 165 140 154 182 208 189 169 195 223 14 279 323 234 253 246 265 306 347 278 275 265 261 259 254 244 237 237 238 237 233 229 222 228 229 223 220 218 220 219 220 220 206 205 206 204 204 202 201 198 203 200 199 193 193 196 199 199 204 206 214 221 219 223 167 168 173 175 195 202 205 204 198 203 206 204 204 204 201 206 203 203 204 204 192 203 213 205 202 205 210 206 209 214 203 214 217
262 123 78 70 67 63 136 176 164 252 195 247 236 186 218 275 271 304 343 249 270 260 258 252 246 247 241 242 248 250 257 259 243 237 238 230 223 224 221 230 240 224 218 215 212 202 200 193 196 196 205 198 193 194 194 198 200 199 205 208 212 217 208 197 164 181 187 173 201 202 205 206 207 205 207 205 203 202 202 205 206 207 209 205 193 208 208 205 207 203 202 205 209 214 211 207 214
118 113 88 50 42 65 38 71 107 71 246 245 218 289 165 286 236 213 189 217 197 239 279 276 269 261 261 253 255 261 259 250 241 236 236 237 231 229 216 221 228 228 216 206 210 203 193 191 194 199 204 193 191 195 191 199 197 200 206 207 211 214 200 186 187 203 190 183 211 202 196 206 202 210 200 208 203 198 202 201 206 208 205 205 202 192 202 206 208 209 213 202 199 205 204 205 218
132 118 124 111 245 22 44 344 48 195 255 278 232 181 150 222 300 274 240 274 228 214 231 253 260 270 259 255 253 253 256 255 253 247 246 235 239 240 222 229 221 215 200 208 207 195 194 196 192 201 201 196 192 193 192 199 195 202 208 207 210 210 193 190 198 207 197 206 205 206 198 193 212 209 205 205 207 201 201 202 203 201 200 203 210 211 208 201 207 210 202 195 205 207 212 211 218
122 109 130 161 234 129 248 91 223 218 210 214 96 158 350 244 223 255 271 254 272 222 220 237 251 269 275 273 264 256 256 258 252 246 248 243 229 228 221 228 216 207 206 204 201 196 196 194 194 198 206 196 193 190 196 197 196 202 202 206 210 200 191 191 197 204 197 206 204 202 182 205 192 202 211 206 208 200 196 198 194 198 204 208 200 191 208 206 199 192 194 198 200 203 209 210 217
152 162 166 163 169 176 217 232 346 336 288 279 271 193 268 259 281 234 245 256 238 245 231 240 245 254 269 275 283 293 281 254 252 249 249 245 235 232 225 221 216 216 212 205 201 197 197 198 197 200 209 193 193 193 197 197 203 202 199 203 202 184 191 186 194 198 202 204 196 201 196 197 196 205 199 207 204 196 196 199 197 200 199 189 192 201 203 200 190 190 191 192 200 214 209 213 221
203 114 158 187 139 164 206 176 215 221 210 225 266 108 234 125 249 234 233 259 316 283 261 253 255 259 266 276 288 281 277 266 248 253 250 250 250 244 240 231 227 221 213 206 201 203 195 203 198 204 207 199 190 196 194 201 203 197 193 194 189 183 186 188 196 198 198 198 196 195 199 195 197 203 199 207 188 191 198 197 195 196 193 187 168 160 180 191 183 186 179 199 209 200 209 213 230
207 174 79 152 220 134 173 207 146 198 233 273 216 209 186 185 245 276 229 265 277 271 275 268 269 260 262 286 273 262 257 259 247 250 267 266 258 259 246 243 231 226 217 209 207 201 199 206 202 205 206 199 193 191 198 198 197 185 182 183 188 183 187 189 199 202 203 193 189 189 196 196 202 193 199 171 200 188 190 193 191 196 192 193 169 161 148 154 164 150 121 151 187 157 163 206 230
213 111 205 215 141 108 81 56 102 118 46 254 138 306 283 301 310 274 310 321 279 287 278 265 267 273 312 273 266 262 261 263 263 252 252 263 268 245 229 226 226 220 215 211 212 206 207 202 201 206 208 195 191 195 193 189 185 179 187 184 182 186 187 192 197 198 195 187 182 191 192 200 187 181 187 190 178 190 178 182 189 197 194 185 170 167 158 143 157 174 176 164 192 153 162 198 193
112 191 222 170 127 111 137 210 344 143 211 258 96 227 292 6 267 327 324 276 273 258 242 266 272 268 274 261 260 255 246 246 258 263 261 257 256 258 256 249 240 233 231 234 231 218 206 200 194 195 194 198 200 186 186 182 178 183 181 187 190 190 191 196 192 188 178 170 183 181 162 152 188 187 170 171 159 159 156 165 175 187 182 167 175 177 161 157 164 203 206 204 211 198 213 227 243
150 196 195 139 215 227 293 110 224 170 243 270 301 270 254 194 228 328 288 237 256 264 279 325 293 286 247 259 262 265 265 276 270 269 272 265 252 249 242 240 244 230 220 220 228 199 195 190 193 189 195 197 188 184 181 182 180 182 183 188 188 189 189 183 175 164 161 171 175 174 178 175 141 152 145 142 145 153 158 149 152 149 139 142 107 104 104 94 133 199 134 127 93 106 298 297 276
73 66 100 271 104 151 128 201 166 131 257 33 288 5 249 188 217 193 246 241 236 247 283 265 263 270 282 278 281 282 285 272 274 273 278 279 274 262 244 229 230 236 236 226 185 166 192 195 170 181 158 150 147 167 168 174 183 172 169 159 165 165 166 164 165 159 167 172 172 165 154 153 168 150 141 137 134 137 137 123 96 116 98 77 93 62 67 83 98 108 96 143 62 82 119 201 265
160 133 188 172 28 229 111 67 142 185 189 181 232 295 257 243 208 186 212 223 248 246 212 238 259 269 262 264 276 286 276 271 269 275 281 282 286 300 303 252 237 337 94 123 152 179 187 166 174 173 162 162 166 172 165 169 157 156 149 157 155 151 152 148 145 157 156 158 157 156 151 141 116 118 123 124 130 133 126 115 110 98 108 103 97 82 69 106 91 91 58 44 54 88 138 56 60
168 163 195 171 125 147 172 241 45 98 154 231 141 259 260 262 171 201 205 225 219 243 226 238 256 264 268 286 287 270 280 276 275 269 257 272 299 348 17 47 65 98 97 129 137 127 135 167 172 163 150 163 159 165 164 152 153 147 150 145 144 139 140 139 136 139 139 144 145 140 133 119 122 122 142 126 112 108 109 118 107 111 97 96 99 91 82 93 103 95 63 35 62 75 79 71 64